GFSMA_500_temp_183.txt.gz
Temp
-12 -12 -12 -12 -12 -12 -12 -12 -12 -13 -12 -12 -12 -12 -12 -12 -11 -12 -11 -11 -11 -12 -12 -12 -12 -12 -12 -12 -12 -12 -12 -12 -12 -12 -12 -12 -12 -12 -12 -12 -12 -12 -12
-12 -12 -12 -12 -12 -12 -12 -12 -12 -12 -12 -13 -12 -12 -12 -12 -12 -12 -12 -12 -12 -12 -12 -12 -12 -12 -12 -12 -12 -12 -12 -13 -12 -12 -12 -12 -12 -12 -12 -12 -12 -12 -12
-12 -12 -12 -12 -12 -12 -12 -12 -12 -12 -12 -12 -13 -13 -12 -12 -12 -12 -12 -12 -12 -12 -12 -13 -12 -12 -12 -12 -12 -12 -12 -12 -12 -12 -12 -13 -12 -12 -12 -12 -12 -12 -12
-12 -12 -12 -12 -12 -12 -12 -13 -13 -13 -12 -12 -12 -12 -13 -13 -12 -12 -12 -12 -12 -12 -12 -12 -12 -13 -13 -12 -13 -13 -13 -13 -13 -13 -12 -13 -13 -12 -12 -12 -12 -12 -12
-12 -12 -12 -12 -13 -13 -13 -13 -13 -13 -13 -13 -13 -13 -13 -13 -13 -12 -13 -12 -12 -12 -13 -12 -12 -13 -13 -13 -13 -13 -13 -13 -13 -13 -13 -13 -13 -13 -13 -12 -12 -12 -12
-13 -13 -12 -12 -13 -13 -13 -13 -13 -13 -13 -13 -13 -13 -13 -13 -13 -13 -13 -13 -13 -13 -13 -13 -13 -13 -13 -13 -13 -13 -13 -13 -13 -13 -13 -13 -13 -13 -13 -13 -13 -13 -13
-12 -13 -12 -13 -12 -13 -13 -12 -13 -13 -13 -13 -13 -13 -13 -14 -14 -13 -13 -13 -13 -13 -13 -13 -13 -13 -13 -13 -13 -13 -14 -13 -13 -13 -13 -13 -13 -13 -13 -13 -13 -13 -13
-12 -12 -12 -13 -12 -12 -13 -13 -13 -13 -12 -13 -13 -13 -13 -13 -13 -13 -13 -14 -14 -14 -14 -14 -14 -13 -13 -14 -13 -13 -14 -13 -14 -14 -14 -14 -14 -14 -14 -13 -13 -13 -14
-12 -12 -12 -12 -12 -12 -12 -13 -13 -13 -12 -13 -13 -14 -13 -14 -14 -14 -13 -14 -14 -14 -15 -14 -15 -14 -14 -14 -14 -14 -15 -14 -15 -15 -15 -15 -15 -15 -14 -14 -14 -15 -15
-13 -12 -12 -12 -12 -11 -11 -12 -12 -12 -13 -13 -13 -13 -13 -14 -13 -14 -14 -14 -15 -15 -15 -16 -16 -16 -15 -15 -15 -15 -15 -15 -15 -15 -16 -15 -15 -15 -16 -15 -15 -16 -16
-13 -13 -13 -12 -12 -12 -13 -13 -13 -13 -13 -13 -13 -13 -13 -13 -13 -13 -14 -14 -14 -15 -17 -17 -17 -16 -16 -16 -16 -16 -16 -16 -16 -16 -16 -16 -16 -16 -16 -16 -16 -17 -17
-13 -13 -13 -13 -13 -12 -13 -13 -13 -13 -13 -13 -13 -13 -13 -13 -13 -14 -14 -14 -16 -16 -16 -17 -17 -16 -17 -16 -16 -17 -17 -17 -17 -17 -16 -16 -17 -17 -17 -18 -18 -18 -19
-13 -13 -13 -13 -13 -12 -14 -13 -13 -13 -13 -13 -14 -14 -14 -14 -15 -15 -15 -16 -16 -16 -17 -17 -17 -17 -17 -17 -18 -17 -18 -17 -17 -17 -17 -17 -18 -18 -18 -19 -19 -19 -19
-13 -14 -13 -12 -13 -13 -14 -14 -15 -15 -14 -15 -15 -16 -16 -16 -16 -17 -17 -17 -17 -17 -17 -17 -17 -17 -18 -17 -18 -18 -18 -17 -18 -19 -19 -19 -19 -19 -19 -19 -20 -20 -20
-14 -13 -13 -14 -14 -13 -17 -16 -16 -16 -16 -16 -16 -18 -17 -16 -17 -17 -18 -19 -18 -19 -18 -18 -18 -18 -18 -18 -18 -18 -19 -19 -19 -20 -20 -19 -20 -20 -20 -20 -20 -20 -20
-14 -14 -15 -14 -15 -15 -18 -18 -18 -17 -17 -17 -18 -19 -19 -18 -19 -19 -20 -20 -20 -20 -19 -19 -18 -19 -19 -19 -19 -19 -19 -20 -20 -20 -20 -20 -20 -20 -20 -21 -21 -21 -21
-15 -14 -15 -18 -18 -17 -17 -17 -17 -18 -17 -17 -17 -18 -19 -19 -19 -19 -19 -20 -20 -20 -20 -19 -19 -20 -19 -20 -20 -20 -20 -21 -21 -21 -21 -21 -21 -21 -21 -21 -22 -22 -22
-16 -17 -17 -17 -17 -17 -18 -18 -18 -19 -19 -20 -20 -20 -21 -21 -21 -21 -21 -21 -21 -20 -20 -20 -20 -20 -20 -20 -20 -21 -21 -21 -21 -21 -22 -22 -22 -22 -22 -23 -23 -22 -22
-17 -17 -17 -18 -18 -18 -18 -19 -19 -20 -21 -21 -22 -22 -21 -21 -21 -21 -21 -21 -21 -21 -21 -21 -21 -21 -21 -22 -21 -22 -22 -22 -22 -22 -22 -22 -22 -23 -23 -23 -23 -23 -23
-18 -18 -18 -18 -19 -20 -20 -21 -22 -22 -22 -22 -22 -23 -23 -23 -23 -22 -22 -22 -22 -23 -23 -23 -23 -23 -22 -22 -22 -23 -23 -23 -23 -23 -23 -24 -24 -24 -24 -23 -24 -23 -24
-19 -19 -19 -20 -21 -21 -21 -22 -22 -22 -22 -23 -23 -24 -25 -25 -25 -24 -24 -24 -25 -24 -24 -24 -24 -23 -23 -23 -23 -23 -23 -23 -24 -23 -24 -24 -25 -24 -24 -24 -25 -25 -25
-20 -20 -21 -21 -22 -22 -22 -23 -23 -23 -23 -24 -25 -25 -25 -25 -25 -25 -25 -25 -25 -25 -25 -25 -24 -24 -23 -24 -24 -24 -24 -24 -24 -25 -24 -25 -24 -24 -25 -25 -25 -25 -25
-20 -21 -22 -22 -22 -23 -23 -23 -23 -23 -24 -25 -26 -26 -26 -26 -26 -26 -26 -26 -25 -25 -25 -25 -25 -24 -24 -25 -25 -25 -25 -25 -25 -25 -25 -25 -25 -25 -25 -25 -25 -25 -26
-21 -22 -22 -22 -23 -23 -23 -23 -24 -24 -25 -25 -26 -26 -26 -26 -26 -26 -26 -26 -26 -26 -25 -25 -24 -25 -25 -25 -25 -25 -25 -25 -25 -25 -26 -26 -26 -26 -26 -26 -26 -26 -26
-22 -22 -23 -23 -24 -24 -24 -24 -25 -26 -26 -26 -26 -26 -26 -26 -27 -27 -27 -27 -26 -26 -25 -25 -25 -26 -26 -25 -25 -25 -26 -26 -26 -26 -26 -26 -26 -26 -26 -26 -26 -27 -27
-23 -23 -23 -24 -24 -24 -24 -25 -25 -26 -26 -26 -26 -26 -27 -27 -27 -27 -27 -27 -27 -26 -26 -26 -26 -26 -26 -26 -26 -26 -27 -26 -26 -26 -26 -26 -26 -27 -27 -27 -27 -27 -27

GFSMA_500_temp_189.txt.gz
Temp
-11 -12 -12 -12 -12 -12 -12 -12 -12 -12 -12 -12 -12 -12 -12 -12 -12 -12 -12 -12 -12 -12 -12 -11 -12 -12 -12 -12 -12 -12 -12 -12 -12 -12 -12 -12 -12 -12 -12 -12 -12 -12 -12
-11 -12 -12 -12 -12 -12 -12 -12 -12 -12 -12 -12 -12 -12 -12 -12 -12 -12 -12 -12 -12 -12 -12 -12 -12 -12 -12 -12 -12 -12 -12 -12 -13 -13 -13 -13 -13 -13 -12 -12 -12 -12 -12
-11 -11 -12 -12 -12 -12 -12 -13 -13 -13 -12 -13 -12 -12 -12 -12 -12 -12 -12 -12 -12 -12 -12 -12 -12 -12 -12 -12 -12 -12 -12 -13 -13 -13 -13 -13 -13 -13 -13 -13 -13 -12 -12
-11 -11 -11 -12 -12 -12 -13 -13 -13 -13 -13 -13 -13 -13 -12 -12 -12 -13 -13 -12 -12 -13 -12 -12 -12 -12 -12 -12 -12 -13 -13 -13 -13 -13 -13 -13 -13 -13 -13 -13 -13 -13 -13
-11 -11 -11 -11 -11 -12 -12 -13 -13 -12 -12 -12 -12 -12 -12 -13 -12 -13 -13 -13 -13 -13 -13 -13 -12 -12 -12 -12 -12 -13 -13 -13 -13 -13 -13 -13 -13 -13 -13 -13 -13 -13 -13
-10 -10 -11 -11 -12 -12 -12 -13 -13 -12 -13 -12 -13 -13 -13 -13 -13 -13 -13 -13 -13 -13 -13 -13 -13 -13 -13 -13 -13 -14 -14 -13 -13 -13 -14 -14 -14 -14 -14 -14 -14 -13 -13
-10 -10 -11 -11 -11 -12 -12 -12 -13 -13 -13 -13 -12 -13 -12 -12 -13 -13 -13 -13 -14 -14 -13 -13 -14 -14 -14 -14 -14 -13 -14 -14 -14 -14 -14 -14 -14 -14 -14 -14 -14 -14 -14
-11 -11 -11 -11 -12 -13 -13 -12 -13 -13 -13 -12 -12 -13 -13 -12 -12 -12 -12 -13 -13 -13 -13 -13 -13 -13 -13 -14 -14 -14 -14 -15 -15 -14 -15 -14 -15 -15 -15 -15 -15 -14 -14
-11 -11 -11 -12 -12 -12 -12 -13 -13 -13 -13 -12 -12 -13 -13 -13 -13 -13 -13 -13 -13 -13 -13 -13 -13 -14 -13 -14 -14 -13 -14 -14 -14 -15 -15 -15 -15 -15 -16 -15 -16 -15 -15
-12 -12 -12 -12 -12 -12 -13 -13 -13 -13 -13 -12 -12 -13 -13 -13 -14 -13 -13 -13 -13 -13 -14 -14 -14 -14 -14 -15 -14 -14 -15 -16 -16 -16 -16 -16 -16 -16 -16 -16 -16 -16 -16
-12 -12 -12 -12 -13 -13 -14 -13 -13 -12 -13 -13 -12 -12 -14 -13 -14 -14 -15 -15 -15 -15 -13 -16 -15 -16 -17 -16 -16 -16 -16 -17 -16 -16 -17 -16 -17 -17 -16 -16 -16 -16 -16
-12 -12 -13 -13 -13 -14 -14 -14 -14 -14 -14 -14 -13 -13 -14 -15 -15 -15 -15 -15 -15 -15 -15 -15 -15 -15 -15 -16 -18 -18 -17 -17 -17 -17 -17 -17 -17 -17 -17 -17 -17 -17 -17
-12 -12 -13 -13 -13 -13 -14 -14 -14 -14 -13 -14 -15 -15 -15 -14 -15 -16 -15 -15 -16 -16 -17 -17 -17 -17 -18 -18 -18 -17 -18 -18 -18 -18 -17 -17 -17 -18 -17 -17 -18 -18 -17
-13 -13 -13 -13 -13 -14 -14 -15 -14 -13 -14 -14 -14 -16 -18 -18 -18 -17 -17 -17 -16 -16 -16 -16 -16 -16 -16 -16 -16 -17 -18 -18 -18 -18 -18 -18 -18 -18 -18 -18 -18 -18 -17
-14 -13 -14 -14 -14 -12 -15 -15 -15 -15 -18 -17 -17 -18 -18 -18 -18 -17 -17 -17 -18 -18 -18 -18 -18 -17 -17 -17 -16 -18 -19 -19 -19 -19 -19 -19 -19 -18 -19 -18 -18 -19 -19
-14 -14 -15 -15 -15 -15 -14 -15 -15 -18 -18 -18 -18 -17 -18 -18 -18 -18 -18 -19 -19 -19 -20 -20 -20 -20 -19 -19 -19 -19 -19 -19 -20 -19 -19 -19 -19 -19 -19 -19 -19 -20 -20
-15 -15 -16 -16 -16 -16 -16 -16 -17 -18 -18 -18 -18 -18 -18 -18 -19 -19 -20 -21 -21 -21 -21 -21 -21 -21 -21 -21 -21 -21 -20 -20 -20 -20 -20 -20 -20 -20 -21 -20 -21 -21 -20
-16 -16 -16 -16 -17 -17 -17 -18 -18 -18 -18 -18 -18 -18 -18 -20 -20 -21 -22 -22 -22 -22 -22 -22 -22 -22 -22 -22 -22 -22 -22 -22 -22 -22 -22 -22 -22 -22 -22 -22 -22 -22 -22
-17 -17 -17 -17 -17 -18 -19 -19 -18 -18 -18 -18 -18 -19 -19 -20 -21 -22 -22 -22 -22 -23 -23 -23 -23 -23 -23 -24 -25 -25 -24 -24 -25 -24 -24 -23 -23 -23 -23 -23 -23 -23 -22
-18 -17 -18 -18 -18 -18 -19 -19 -18 -18 -18 -19 -19 -19 -20 -21 -22 -22 -22 -23 -23 -23 -23 -24 -25 -25 -26 -25 -25 -25 -25 -25 -25 -25 -24 -24 -24 -23 -23 -23 -23 -23 -23
-18 -18 -18 -18 -19 -20 -19 -19 -19 -18 -19 -19 -20 -20 -21 -22 -22 -22 -23 -23 -23 -24 -25 -25 -26 -26 -26 -26 -26 -26 -26 -26 -26 -25 -25 -25 -24 -24 -24 -24 -24 -24 -24
-18 -18 -19 -20 -21 -20 -20 -20 -19 -19 -19 -20 -20 -21 -21 -22 -22 -23 -23 -23 -24 -24 -25 -25 -25 -26 -26 -27 -26 -27 -27 -26 -26 -26 -26 -26 -25 -25 -25 -25 -24 -24 -25
-18 -19 -20 -20 -22 -21 -21 -21 -20 -20 -20 -20 -21 -21 -21 -22 -23 -23 -24 -24 -25 -25 -25 -26 -26 -27 -27 -27 -27 -26 -26 -26 -27 -26 -26 -25 -26 -25 -25 -25 -25 -25 -25
-19 -20 -20 -22 -23 -23 -22 -22 -21 -21 -21 -21 -21 -22 -22 -23 -24 -24 -24 -25 -25 -26 -26 -27 -27 -27 -27 -27 -27 -26 -26 -26 -27 -26 -26 -26 -26 -26 -25 -25 -26 -26 -25
-19 -20 -22 -22 -23 -23 -22 -22 -21 -21 -21 -21 -22 -23 -23 -24 -24 -25 -25 -26 -26 -27 -27 -27 -28 -28 -27 -27 -27 -27 -27 -27 -27 -27 -27 -26 -26 -26 -26 -26 -26 -26 -26
-20 -20 -23 -24 -23 -23 -23 -22 -22 -22 -22 -22 -23 -23 -24 -24 -25 -25 -26 -26 -27 -28 -28 -28 -28 -28 -28 -27 -27 -27 -27 -27 -27 -27 -26 -26 -26 -26 -26 -26 -26 -26 -26

GFSMA_500_temp_192.txt.gz
Temp
-12 -12 -12 -13 -12 -13 -13 -13 -13 -13 -13 -12 -12 -12 -12 -12 -12 -12 -12 -12 -12 -12 -12 -12 -12 -12 -12 -12 -12 -12 -12 -12 -12 -12 -12 -12 -13 -12 -12 -12 -13 -13 -13
-11 -12 -12 -13 -13 -12 -12 -12 -13 -13 -13 -13 -12 -12 -12 -12 -12 -12 -12 -12 -12 -12 -13 -12 -12 -12 -12 -12 -12 -12 -12 -12 -12 -12 -12 -12 -12 -13 -13 -13 -13 -13 -13
-11 -12 -12 -12 -12 -12 -12 -13 -13 -13 -13 -12 -12 -12 -13 -13 -13 -13 -13 -12 -12 -13 -13 -13 -13 -13 -13 -12 -12 -12 -12 -12 -13 -13 -13 -13 -13 -13 -13 -13 -13 -13 -13
-10 -11 -11 -12 -12 -12 -12 -12 -12 -12 -12 -12 -12 -12 -13 -13 -13 -13 -13 -13 -13 -13 -13 -13 -13 -13 -13 -13 -13 -13 -13 -13 -13 -13 -13 -13 -13 -13 -13 -13 -13 -13 -13
-10 -11 -11 -11 -11 -12 -12 -12 -12 -12 -13 -13 -12 -12 -12 -12 -12 -13 -13 -13 -13 -14 -13 -13 -13 -13 -13 -13 -13 -13 -13 -13 -13 -14 -14 -13 -13 -13 -13 -13 -13 -13 -13
-10 -10 -10 -11 -11 -12 -12 -12 -12 -12 -12 -13 -13 -12 -12 -12 -12 -12 -13 -13 -13 -13 -13 -13 -13 -14 -14 -14 -14 -14 -13 -14 -14 -14 -14 -14 -14 -14 -14 -14 -13 -14 -13
-10 -10 -10 -11 -11 -11 -11 -11 -12 -12 -13 -12 -12 -12 -12 -12 -11 -12 -12 -13 -13 -13 -13 -13 -13 -13 -14 -14 -14 -14 -14 -14 -14 -15 -14 -15 -15 -15 -14 -14 -14 -14 -14
-11 -11 -10 -10 -11 -11 -11 -12 -12 -12 -13 -13 -13 -12 -12 -13 -13 -12 -12 -13 -13 -13 -13 -13 -14 -14 -13 -13 -14 -14 -14 -14 -14 -14 -15 -15 -16 -16 -15 -15 -16 -16 -16
-10 -10 -11 -11 -11 -11 -11 -12 -12 -13 -13 -12 -12 -13 -13 -14 -13 -12 -12 -13 -13 -14 -13 -14 -14 -14 -14 -14 -14 -14 -15 -15 -15 -15 -15 -15 -16 -16 -16 -16 -16 -16 -16
-11 -11 -11 -11 -11 -11 -12 -12 -12 -12 -13 -12 -13 -12 -13 -12 -13 -14 -14 -13 -14 -14 -14 -14 -14 -14 -14 -16 -16 -16 -17 -16 -16 -17 -17 -17 -17 -16 -15 -16 -16 -16 -16
-11 -11 -12 -12 -12 -12 -12 -12 -13 -13 -13 -12 -13 -13 -13 -13 -14 -14 -14 -14 -15 -15 -15 -15 -13 -14 -15 -16 -16 -16 -16 -16 -17 -17 -18 -18 -18 -17 -17 -17 -17 -17 -17
-11 -11 -12 -12 -12 -12 -13 -13 -13 -13 -13 -13 -13 -13 -14 -14 -15 -16 -15 -16 -16 -15 -15 -15 -15 -15 -16 -16 -16 -17 -17 -17 -17 -17 -17 -18 -18 -18 -18 -18 -17 -17 -17
-11 -12 -12 -12 -13 -13 -13 -13 -13 -14 -14 -14 -14 -14 -15 -15 -15 -15 -16 -16 -16 -16 -16 -15 -15 -15 -16 -16 -16 -16 -16 -16 -16 -16 -16 -16 -17 -18 -18 -18 -18 -18 -18
-12 -12 -12 -13 -14 -14 -14 -14 -14 -14 -13 -14 -14 -14 -14 -17 -16 -15 -16 -16 -17 -17 -17 -16 -16 -16 -16 -17 -17 -17 -18 -17 -18 -18 -17 -17 -16 -17 -18 -19 -18 -18 -18
-13 -13 -13 -14 -14 -14 -14 -15 -15 -14 -15 -15 -15 -16 -19 -18 -17 -17 -17 -17 -17 -17 -17 -17 -17 -17 -17 -18 -18 -18 -18 -19 -19 -19 -19 -19 -19 -19 -19 -19 -19 -19 -19
-14 -14 -14 -15 -15 -15 -15 -15 -14 -16 -16 -16 -16 -17 -18 -18 -17 -17 -18 -18 -18 -18 -18 -18 -19 -20 -20 -21 -20 -20 -20 -20 -20 -20 -20 -20 -20 -19 -19 -19 -19 -19 -19
-15 -15 -15 -15 -15 -16 -16 -16 -16 -16 -17 -17 -17 -18 -18 -18 -18 -18 -18 -18 -18 -20 -20 -21 -21 -21 -21 -22 -22 -22 -22 -22 -22 -22 -22 -21 -22 -22 -21 -21 -21 -21 -21
-15 -15 -15 -16 -17 -16 -16 -16 -17 -17 -18 -18 -17 -18 -18 -18 -18 -18 -19 -19 -20 -20 -21 -22 -22 -22 -22 -23 -23 -23 -23 -23 -23 -24 -25 -25 -24 -23 -24 -23 -23 -23 -23
-17 -17 -18 -18 -18 -18 -17 -18 -18 -18 -18 -18 -19 -20 -19 -18 -19 -19 -20 -20 -21 -22 -22 -22 -23 -23 -23 -23 -23 -23 -24 -25 -24 -25 -26 -26 -25 -25 -25 -24 -23 -23 -24
-18 -18 -18 -17 -18 -18 -18 -18 -19 -19 -18 -19 -20 -19 -19 -19 -19 -20 -20 -21 -21 -22 -23 -23 -23 -23 -24 -24 -25 -26 -26 -26 -26 -26 -26 -26 -26 -26 -25 -25 -24 -24 -24
-18 -19 -18 -18 -18 -18 -18 -18 -19 -18 -19 -20 -20 -19 -19 -19 -20 -20 -20 -21 -21 -22 -23 -23 -23 -24 -24 -25 -26 -26 -26 -26 -26 -26 -27 -27 -27 -26 -26 -25 -25 -24 -24
-18 -18 -18 -18 -19 -19 -18 -19 -21 -21 -22 -21 -20 -20 -20 -20 -20 -21 -21 -21 -21 -21 -22 -23 -24 -24 -25 -26 -26 -26 -27 -27 -27 -27 -27 -27 -27 -27 -27 -26 -25 -25 -25
-19 -19 -19 -19 -19 -19 -20 -23 -22 -23 -22 -21 -21 -21 -21 -21 -21 -20 -21 -21 -22 -22 -23 -24 -24 -25 -26 -27 -27 -27 -27 -27 -27 -26 -26 -27 -27 -27 -27 -26 -26 -26 -26
-20 -19 -19 -19 -20 -20 -21 -22 -22 -23 -22 -22 -22 -22 -22 -21 -21 -21 -22 -22 -23 -23 -24 -24 -25 -26 -27 -27 -28 -28 -27 -27 -27 -27 -26 -26 -27 -27 -27 -27 -27 -26 -26
-19 -20 -19 -20 -20 -19 -21 -23 -23 -23 -23 -23 -23 -23 -22 -22 -22 -22 -22 -22 -23 -24 -24 -25 -26 -27 -28 -28 -28 -28 -27 -27 -27 -27 -27 -27 -27 -27 -27 -27 -26 -26 -26
-21 -21 -21 -20 -20 -20 -21 -24 -24 -24 -23 -23 -23 -22 -23 -22 -23 -23 -23 -23 -24 -25 -25 -26 -26 -28 -29 -29 -28 -28 -27 -27 -27 -27 -27 -27 -27 -27 -27 -27 -26 -26 -26

GFSMA_500_temp_195.txt.gz
Temp
-11 -12 -12 -13 -13 -12 -12 -12 -12 -12 -13 -12 -12 -12 -12 -13 -13 -13 -13 -13 -13 -13 -13 -13 -12 -12 -12 -12 -12 -12 -12 -12 -12 -12 -12 -12 -12 -12 -12 -12 -12 -13 -13
-11 -11 -12 -12 -12 -12 -12 -12 -12 -12 -12 -13 -12 -12 -13 -13 -13 -13 -13 -13 -13 -13 -13 -13 -13 -13 -13 -12 -12 -12 -12 -12 -12 -12 -12 -12 -12 -12 -12 -12 -13 -13 -13
-11 -11 -11 -12 -12 -12 -12 -12 -12 -12 -13 -12 -12 -12 -12 -13 -13 -13 -13 -13 -13 -13 -14 -13 -13 -13 -13 -13 -13 -13 -13 -13 -13 -13 -12 -12 -13 -13 -13 -13 -13 -13 -13
-10 -10 -11 -12 -11 -11 -12 -12 -11 -12 -12 -12 -13 -12 -12 -12 -12 -13 -13 -13 -13 -13 -13 -13 -14 -14 -13 -13 -13 -13 -14 -13 -13 -13 -13 -13 -13 -13 -13 -14 -13 -13 -13
-10 -11 -11 -11 -11 -11 -11 -11 -11 -12 -11 -11 -12 -12 -12 -12 -12 -12 -12 -13 -13 -13 -13 -13 -13 -13 -13 -14 -14 -14 -13 -13 -13 -14 -13 -13 -14 -14 -14 -14 -14 -14 -14
-10 -10 -10 -10 -10 -11 -11 -12 -12 -12 -12 -12 -12 -12 -12 -12 -12 -12 -12 -12 -13 -13 -13 -12 -13 -13 -13 -13 -13 -14 -13 -14 -14 -14 -13 -14 -14 -14 -14 -15 -15 -15 -15
-9 -9 -10 -11 -11 -11 -11 -12 -12 -12 -12 -12 -12 -12 -13 -12 -13 -13 -13 -12 -13 -13 -13 -13 -13 -13 -13 -13 -13 -13 -13 -13 -14 -14 -14 -14 -15 -14 -15 -15 -16 -15 -15
-9 -10 -10 -10 -11 -11 -11 -11 -12 -12 -12 -12 -12 -12 -12 -13 -12 -13 -13 -13 -13 -12 -13 -13 -14 -14 -14 -14 -14 -14 -14 -14 -14 -14 -15 -15 -14 -15 -15 -16 -15 -15 -15
-10 -10 -10 -10 -11 -11 -11 -11 -11 -12 -12 -12 -12 -13 -13 -13 -13 -12 -13 -13 -13 -13 -13 -14 -14 -13 -14 -14 -14 -15 -14 -14 -15 -16 -16 -16 -16 -16 -16 -16 -16 -16 -16
-10 -10 -10 -10 -11 -12 -12 -12 -12 -12 -12 -12 -12 -13 -13 -12 -13 -13 -14 -14 -13 -13 -14 -14 -14 -14 -15 -15 -15 -15 -14 -15 -14 -16 -16 -15 -16 -16 -17 -17 -17 -17 -16
-11 -10 -11 -11 -11 -12 -12 -12 -12 -12 -13 -13 -13 -13 -14 -14 -14 -14 -14 -14 -15 -15 -15 -15 -16 -16 -15 -15 -15 -15 -15 -14 -14 -14 -14 -14 -14 -15 -16 -16 -17 -16 -17
-11 -11 -11 -11 -11 -12 -12 -12 -11 -12 -13 -13 -13 -13 -13 -14 -13 -14 -15 -15 -15 -15 -16 -16 -16 -15 -16 -16 -16 -15 -16 -16 -15 -16 -16 -16 -16 -16 -16 -17 -17 -16 -17
-11 -11 -12 -12 -12 -12 -13 -13 -13 -12 -13 -14 -14 -13 -13 -13 -14 -14 -15 -16 -15 -16 -16 -16 -16 -16 -16 -17 -17 -18 -18 -17 -17 -17 -17 -17 -17 -17 -17 -17 -17 -17 -17
-11 -12 -12 -12 -12 -12 -12 -12 -12 -13 -13 -12 -14 -14 -15 -14 -14 -16 -16 -16 -16 -17 -17 -17 -17 -17 -17 -17 -17 -17 -17 -17 -17 -17 -17 -17 -17 -17 -17 -18 -18 -19 -18
-12 -12 -12 -12 -12 -12 -13 -13 -13 -14 -14 -14 -14 -15 -15 -15 -15 -16 -17 -17 -17 -17 -17 -17 -17 -17 -17 -17 -17 -17 -18 -18 -18 -18 -18 -18 -18 -19 -19 -19 -20 -19 -19
-12 -12 -13 -13 -13 -14 -14 -14 -15 -15 -15 -15 -16 -16 -16 -17 -17 -17 -18 -18 -18 -18 -18 -18 -18 -18 -18 -18 -18 -18 -19 -19 -19 -19 -20 -20 -21 -21 -21 -21 -21 -22 -21
-13 -13 -13 -14 -15 -15 -15 -15 -16 -16 -17 -17 -16 -17 -17 -17 -18 -18 -18 -18 -18 -18 -18 -19 -19 -19 -20 -20 -20 -21 -21 -22 -22 -22 -22 -23 -23 -22 -23 -22 -22 -22 -22
-14 -14 -15 -16 -16 -16 -16 -16 -16 -16 -17 -17 -17 -17 -18 -18 -18 -19 -19 -19 -19 -19 -19 -19 -19 -20 -20 -22 -22 -22 -23 -23 -23 -23 -23 -23 -23 -23 -24 -23 -23 -25 -25
-15 -15 -16 -17 -17 -18 -17 -17 -18 -17 -17 -17 -18 -18 -18 -18 -19 -20 -20 -19 -19 -19 -19 -20 -20 -20 -21 -22 -22 -22 -23 -23 -23 -24 -24 -24 -25 -26 -26 -26 -26 -26 -25
-16 -16 -17 -17 -18 -19 -18 -18 -19 -19 -18 -19 -18 -19 -20 -20 -20 -21 -20 -20 -20 -20 -20 -20 -20 -21 -21 -21 -22 -22 -23 -24 -24 -25 -25 -26 -26 -26 -26 -26 -26 -26 -26
-17 -17 -18 -18 -18 -18 -18 -19 -19 -18 -19 -19 -20 -22 -21 -21 -22 -20 -20 -20 -21 -21 -20 -20 -20 -20 -21 -22 -22 -23 -24 -25 -25 -26 -26 -26 -26 -27 -26 -26 -26 -27 -26
-17 -17 -18 -19 -18 -20 -19 -19 -19 -19 -19 -19 -21 -21 -21 -22 -21 -21 -21 -22 -22 -22 -22 -21 -21 -22 -22 -23 -23 -24 -25 -26 -26 -27 -27 -27 -27 -27 -27 -27 -27 -27 -28
-20 -19 -19 -18 -20 -20 -20 -20 -19 -19 -20 -19 -21 -23 -22 -23 -22 -22 -22 -22 -23 -22 -22 -22 -22 -22 -23 -24 -25 -26 -26 -27 -27 -27 -27 -27 -27 -27 -27 -27 -27 -27 -27
-20 -20 -20 -20 -20 -20 -21 -20 -20 -20 -20 -20 -24 -24 -23 -23 -22 -23 -23 -23 -22 -22 -22 -23 -23 -23 -24 -24 -26 -27 -27 -28 -28 -28 -28 -27 -27 -27 -27 -27 -27 -27 -27
-20 -21 -20 -20 -20 -20 -20 -20 -20 -20 -20 -24 -23 -23 -23 -23 -23 -23 -24 -23 -23 -22 -23 -23 -23 -24 -25 -25 -26 -28 -29 -29 -28 -28 -28 -27 -27 -27 -27 -27 -27 -27 -27
-21 -22 -20 -21 -21 -21 -20 -21 -21 -21 -21 -22 -23 -24 -24 -23 -23 -24 -24 -24 -23 -23 -23 -23 -24 -24 -25 -26 -28 -29 -29 -28 -28 -28 -28 -28 -28 -27 -27 -27 -28 -28 -27